Idaho Falls, ID

6:35 AM MST on November 19, 2017 (GMT -0700)
Fanning

Weather History for KIDA - August, 2013

Change the Weather History Date:

Friday, August 23, 2013

  Actual Average Record
Temperature  
Mean Temperature 72 °F 66 °F  
Max Temperature 88 °F 84 °F 97 °F (1969)
Min Temperature 55 °F 47 °F 36 °F (1985)
Degree Days  
Heating Degree Days 0 2  
Month to date heating degree days 0 17  
Since 1 June heating degree days 100 197  
Since 1 July heating degree days 0 44  
Cooling Degree Days 7 2  
Month to date cooling degree days 129 80  
Year to date cooling degree days 420 235  
Since 1 June cooling degree days 416 233  
Growing Degree Days 21 (Base 50)    
Moisture  
Dew Point 48 °F    
Average Humidity 54    
Maximum Humidity 83    
Minimum Humidity 24    
Precipitation  
Precipitation T in 0.02 in 0.35 in (2009)
Month to date precipitation 0.03 0.37  
Year to date precipitation 2.46 6.81  
Sea Level Pressure  
Sea Level Pressure 29.87 in    
Wind  
Wind Speed 9 mph (SW)    
Max Wind Speed 26 mph    
Max Gust Speed 38 mph    
Visibility 10 miles    
Events      
T = Trace of Precipitation, MM = Missing Value Source: NWS Daily Summary

Daily Weather History Graph

Daily Weather History Graph

Search for Another Location

Airport or City:

Trip Planner

Search our weather history database for the weather conditions in past years. The results will help you decide how hot, cold, wet, or windy it might be!

Date:

Astronomy

Aug. 23, 2013 Rise Set
Actual Time 6:42 AM MDT 8:18 PM MDT
Civil Twilight 6:12 AM MDT 8:48 PM MDT
Nautical Twilight 5:35 AM MDT 9:24 PM MDT
Astronomical Twilight 4:56 AM MDT 10:03 PM MDT
Moon 9:31 PM MDT (8/23) 9:49 AM MDT (8/23)
Length of Visible Light 14h 36m
Length of Day
13h 35m
Waning Gibbous, 91% of the Moon is Illuminated
Aug 23
Waning Gibbous
Aug 28
Last Quarter
Sep 5
New
Sep 12
First Quarter
Sep 19
Full

Hourly Weather History & Observations

Time (MDT) Temp. Dew Point Humidity Pressure Visibility Wind Dir Wind Speed Gust Speed Precip Events Conditions
12:53 AM 66.0 °F 53.1 °F 63% 29.88 in 10.0 mi Calm Calm - N/A   Clear
1:53 AM 62.1 °F 54.0 °F 75% 29.90 in 10.0 mi WSW 5.8 mph - N/A   Clear
2:53 AM 63.0 °F 50.0 °F 63% 29.90 in 10.0 mi SW 5.8 mph - N/A   Clear
3:53 AM 60.1 °F 52.0 °F 75% 29.90 in 10.0 mi Calm Calm - N/A   Clear
4:53 AM 59.0 °F 51.1 °F 75% 29.90 in 10.0 mi Calm Calm - N/A   Clear
5:53 AM 55.9 °F 50.0 °F 80% 29.89 in 10.0 mi North 3.5 mph - N/A   Clear
6:53 AM 57.0 °F 50.0 °F 77% 29.89 in 10.0 mi North 5.8 mph - N/A   Clear
7:53 AM 60.1 °F 52.0 °F 75% 29.88 in 10.0 mi North 4.6 mph - N/A   Scattered Clouds
8:53 AM 66.0 °F 54.0 °F 65% 29.88 in 10.0 mi NNW 4.6 mph - N/A   Scattered Clouds
9:53 AM 71.1 °F 54.0 °F 55% 29.90 in 10.0 mi NNW 5.8 mph - N/A   Scattered Clouds
10:53 AM 77.0 °F 48.9 °F 37% 29.88 in 10.0 mi Variable 3.5 mph - N/A   Clear
11:53 AM 82.9 °F 48.0 °F 29% 29.86 in 10.0 mi SW 8.1 mph - N/A   Clear
12:53 PM 84.9 °F 46.0 °F 26% 29.85 in 10.0 mi SSW 11.5 mph - N/A   Clear
1:53 PM 87.1 °F 46.0 °F 24% 29.82 in 10.0 mi SW 16.1 mph 20.7 mph N/A   Scattered Clouds
2:53 PM 81.0 °F 48.0 °F 31% 29.83 in 10.0 mi WSW 6.9 mph - N/A   Clear
3:53 PM 78.1 °F 46.9 °F 33% 29.83 in 10.0 mi SW 20.7 mph 29.9 mph N/A   Mostly Cloudy
4:53 PM 75.0 °F 46.0 °F 36% 29.82 in 10.0 mi SW 15.0 mph - N/A   Clear
5:53 PM 79.0 °F 39.9 °F 25% 29.81 in 10.0 mi SSW 18.4 mph - N/A   Clear
6:53 PM 73.0 °F 45.0 °F 37% 29.86 in 10.0 mi South 21.9 mph 32.2 mph N/A   Clear
7:53 PM 75.0 °F 43.0 °F 32% 29.83 in 10.0 mi South 6.9 mph - N/A   Scattered Clouds
8:53 PM 70.0 °F 46.0 °F 42% 29.88 in 10.0 mi SSW 17.3 mph 20.7 mph 0.00 in   Clear
9:15 PM 69.8 °F 46.4 °F 43% 29.99 in 10.0 mi South 13.8 mph 20.7 mph N/A   Clear
9:53 PM 68.0 °F 46.9 °F 47% 29.85 in 10.0 mi SSE 11.5 mph 23.0 mph N/A   Clear
10:53 PM 68.0 °F 46.0 °F 45% 29.86 in 10.0 mi SSE 11.5 mph 23.0 mph N/A   Clear
11:53 PM 64.0 °F 48.0 °F 56% 29.86 in 10.0 mi SW 6.9 mph - N/A   Clear